Regional Weather Roundup
Issued by NWS

Home | Current Version | Previous Version | Graphics & Text | Print | Product List | Glossary On
Versions: 1 2 3 4 5 6 7 8 9 10 11 12 13 14 15 16 17 18 19 20 21 22 23 24 25 26 27 28 29 30 31 32 33 34 35 36 37 38 39 40 41 42 43 44 45 46 47 48 49 50
260
ASUS44 KLIX 152301
RWRLA
LOUISIANA WEATHER ROUNDUP
NATIONAL WEATHER SERVICE NEW ORLEANS LA
600 PM CDT TUE APR 15 2014

NOTE: "FAIR" INDICATES FEW OR NO CLOUDS BELOW 12,000 FEET WITH NO
      SIGNIFICANT WEATHER AND/OR OBSTRUCTIONS TO VISIBILITY.
      SKY/WX - SKY CONDITION AND SIGNIFICANT WEATHER.
      TMP - AIR TEMPERATURE.    DP   - DEWPOINT TEMPERATURE.
      RH  - RELATIVE HUMIDITY.  PRES - PRESSURE.
      HX  - HEAT INDEX.         WCI  - WIND CHILL INDEX.

*  THESE STATIONS ARE NOT NWS OR FAA STATIONS AND ARE NOT UNDER
   NWS QUALITY CONTROL.

LAZ040-048-061>063-065-066-069-160000-
SOUTHEAST LOUISIANA

CITY           SKY/WX    TMP DP  RH WIND       PRES   REMARKS
N.O. AUDUBON     N/A     61  32  32 MISG        N/A
N.O. INTL ARPT PTSUNNY   59  29  31 N16G23    30.11R
N.O. LAKEFRONT MOSUNNY   60  35  39 N17G28    30.11R
N.O. DOWNTOWN* FAIR      61  28  29 NW10G18   30.11R
SLIDELL        MOSUNNY   59  28  30 NW12G18   30.10R
BATON ROUGE    SUNNY     60  25  26 VRB7      30.14R
BOOTHVILLE     PTSUNNY   59  37  44 N12       30.09R
BELLE CHASSE   PTSUNNY   60  29  30 N7G17     30.09R
BOGALUSA*        N/A     59  29  31 N14       30.12R
GALLIANO*      NOT AVBL
NEW ROADS*     NOT AVBL
GONZALES*      FAIR      59  30  33 NW10G20   30.12R
HAMMOND*       NOT AVBL
HOUMA*         NOT AVBL
PORT FOURCHON* CLEAR     61  34  36 N13G20    30.12R

$$

LAZ041-044-053-054-160000-
SOUTHWEST LOUISIANA

CITY           SKY/WX    TMP DP  RH WIND       PRES   REMARKS
LAKE CHARLES   SUNNY     61  28  28 N10       30.16F
LAFAYETTE      SUNNY     58  28  32 N20       30.17R
PATTERSON      MOSUNNY   61  34  36 N12G18    30.16R
SALT POINT       N/A     62  30  29 N12G21    30.12R
NEW IBERIA     SUNNY     59  30  33 N15G24    30.16R
CHENAULT AIRPK SUNNY     61  28  29 N9        30.18S

$$

LAZ027-028-160000-
CENTRAL LOUISIANA

CITY           SKY/WX    TMP DP  RH WIND       PRES   REMARKS
FORT POLK      SUNNY     59  30  33 N12       30.17R
ALEXANDRIA INT SUNNY     59  29  31 N10       30.16R
ALEXANDRIA     SUNNY     60  28  29 N8        30.17R

$$

LAZ001-002-160000-
NORTHWEST LOUISIANA

CITY           SKY/WX    TMP DP  RH WIND       PRES   REMARKS
SHREVEPORT     SUNNY     60  30  32 CALM      30.16F
BARKSDALE AFB  SUNNY     59  27  28 VRB6      30.17F
DTN SHREVEPORT SUNNY     58  30  34 NW8       30.17F

$$

LAZ014-016-160000-
NORTHEAST LOUISIANA

CITY           SKY/WX    TMP DP  RH WIND       PRES   REMARKS
MONROE         SUNNY     57  29  34 N8        30.19R
TALLULAH       SUNNY     54  32  43 N10G18    30.19R

$$




USA.gov is the U.S. government's official web portal to all federal, state and local government web resources and services.